Flag for Germany Weather past 2 weeks in Detmold, North Rhine-Westphalia, Germany

Now
69 °F

Passing clouds.


Feels Like: 69 °F
Forecast: 65 / 96 °F
Wind: 1 mph from East

Location: Bad Lippspringe

Current Time: Jul 3, 2015 at 8:34:14 AM

Latest Report: Jul 3, 2015 at 8:00 AM


Visibility: 6 mi

Pressure: 30.23 "Hg

Humidity: 86%

Dew point: 65 °F

Location of DetmoldLocation

Historic Weather in Detmold — Graph

°F

Detmold temperature yesterday

Maximum temperature yesterday: 94 °F (at 5:00 PM)
Minimum temperature yesterday: 71 °F (at 6:00 AM)
Average temperature yesterday: 82 °F

Past Weeks' High & Low Weather Summary

 TemperatureHumidityPressure
High94 °F (Jul 2, 5:00 PM)100% (Jun 28, 5:00 AM)30.22 "Hg (Jun 28, 5:00 AM)
Low48 °F (Jun 23, 5:00 AM)31% (Jul 2, 5:00 PM)29.67 "Hg (Jun 22, 11:00 PM)
Average63 °F70%30.06 "Hg
* Reported Jun 18 7:00 AM — Jul 3 7:00 AM, Detmold, Weather by CustomWeather, © 2015

Note: Actual official high and low records may vary slightly from our data, if they occured in-between our weather recording intervals... More about our weather records

Advertising

Detmold weather history for previous 24 hours

 ConditionsComfort  
Time TempWeatherWind HumidityBarometerVisibility
7:00 AM
Fri, Jul 3
69 °FRain. Overcast.3 mph88%30.22 "Hg4 mi
6:00 AM72 °FScattered clouds.2 mph69%30.19 "Hg9 mi
5:00 AM74 °FOvercast.5 mph66%30.17 "Hg11 mi
4:00 AM72 °FOvercast.2 mph72%30.16 "Hg12 mi
3:00 AM78 °FOvercast.3 mph51%30.17 "Hg15 mi
2:00 AM79 °FClear.3 mph48%30.11 "Hg17 mi
1:00 AM80 °FClear.6 mph45%30.11 "Hg17 mi
12:00 AM81 °FClear.7 mph45%30.10 "Hg16 mi
11:00 PM
Thu, Jul 2
82 °FClear.7 mph46%30.10 "Hg16 mi
10:00 PM83 °FClear.6 mph46%30.10 "Hg15 mi
9:00 PM87 °FSunny.6 mph41%30.09 "Hg15 mi
8:00 PM90 °FSunny.6 mph39%30.08 "Hg17 mi
7:00 PM92 °FSunny.6 mph34%30.07 "Hg14 mi
6:00 PM93 °FSunny.6 mph32%30.07 "Hg9 mi
5:00 PM94 °FSunny.3 mph31%30.08 "Hg19 mi
4:00 PM93 °FSunny.6 mph32%30.08 "Hg11 mi
3:00 PM93 °FSunny.5 mph35%30.08 "Hg12 mi
2:00 PM91 °FSunny.6 mph35%30.09 "Hg10 mi
1:00 PM89 °FSunny.6 mph40%30.10 "Hg11 mi
12:00 PM86 °FSunny.5 mph46%30.11 "Hg8 mi
11:00 AM84 °FSunny.5 mph46%30.11 "Hg10 mi
10:00 AM81 °FSunny.5 mph48%30.11 "Hg12 mi
9:00 AM78 °FSunny.6 mph49%30.11 "Hg11 mi
8:00 AM75 °FSunny.7 mph51%30.11 "Hg11 mi
Weather by CustomWeather, © 2015

See weather overviewHow to use our weather pages